�������l�o���
Date,Time,MP-1(��Sv/h),MP-2(��Sv/h),MP-3(��Sv/h),MP-4(��Sv/h),MP-5(��Sv/h),MP-6(��Sv/h),MP-7(��Sv/h),����,����(m/s),���J
2017/03/26,00:00,0.389,0.235,0.399,0.368,0.333,0.195,0.163,�쐼,1.6,��
2017/03/26,00:10,0.388,0.234,0.399,0.368,0.332,0.194,0.165,���쐼,0.8,��
2017/03/26,00:20,0.389,0.235,0.398,0.367,0.334,0.194,0.164,���쐼,0.7,��
2017/03/26,00:30,0.388,0.234,0.398,0.368,0.335,0.193,0.165,���k��,0.6,��
2017/03/26,00:40,0.391,0.234,0.398,0.367,0.333,0.195,0.165,-,CALM,��
2017/03/26,00:50,0.389,0.234,0.398,0.368,0.333,0.194,0.165,�k�k��,0.6,��
2017/03/26,01:00,0.389,0.233,0.398,0.367,0.333,0.195,0.165,�k�k��,1.0,��
2017/03/26,01:10,0.388,0.235,0.400,0.367,0.332,0.193,0.165,�k�k��,0.8,��
2017/03/26,01:20,0.390,0.235,0.398,0.367,0.333,0.194,0.164,�k,1.1,��
2017/03/26,01:30,0.388,0.235,0.399,0.367,0.333,0.194,0.165,�k�k��,1.9,��
2017/03/26,01:40,0.389,0.235,0.398,0.367,0.333,0.193,0.165,�k,2.6,��
2017/03/26,01:50,0.388,0.234,0.398,0.367,0.333,0.193,0.165,�k,3.1,��
2017/03/26,02:00,0.388,0.234,0.398,0.367,0.332,0.193,0.165,�k,2.8,��
2017/03/26,02:10,0.390,0.234,0.398,0.367,0.332,0.194,0.165,�k,2.7,��
2017/03/26,02:20,0.389,0.233,0.397,0.367,0.332,0.194,0.164,�k,2.8,��
2017/03/26,02:30,0.390,0.234,0.398,0.369,0.332,0.193,0.165,�k,3.3,��
2017/03/26,02:40,0.389,0.234,0.399,0.368,0.332,0.194,0.164,�k,3.1,��
2017/03/26,02:50,0.389,0.233,0.398,0.367,0.333,0.193,0.165,�k,3.4,��
2017/03/26,03:00,0.390,0.234,0.399,0.367,0.334,0.194,0.164,�k,3.2,��
2017/03/26,03:10,0.389,0.235,0.398,0.367,0.333,0.194,0.164,�k,3.5,��
2017/03/26,03:20,0.389,0.234,0.399,0.367,0.332,0.194,0.165,�k,3.6,��
2017/03/26,03:30,0.389,0.234,0.398,0.366,0.333,0.194,0.165,�k,3.6,��
2017/03/26,03:40,0.388,0.233,0.398,0.368,0.333,0.194,0.164,�k,3.6,��
2017/03/26,03:50,0.388,0.235,0.398,0.366,0.333,0.194,0.165,�k,3.6,��
2017/03/26,04:00,0.388,0.235,0.400,0.367,0.332,0.194,0.163,�k,3.5,��
2017/03/26,04:10,0.389,0.235,0.398,0.367,0.332,0.194,0.163,�k,3.1,��
2017/03/26,04:20,0.388,0.233,0.399,0.368,0.333,0.194,0.165,�k,3.1,��
2017/03/26,04:30,0.389,0.233,0.399,0.365,0.334,0.194,0.164,�k,2.2,��
2017/03/26,04:40,0.389,0.233,0.398,0.367,0.333,0.192,0.164,�k,3.6,��
2017/03/26,04:50,0.388,0.236,0.399,0.366,0.331,0.194,0.165,�k,3.4,��
2017/03/26,05:00,0.388,0.235,0.397,0.367,0.334,0.194,0.164,�k,3.4,��
2017/03/26,05:10,0.388,0.234,0.398,0.367,0.332,0.193,0.164,�k,3.5,��
2017/03/26,05:20,0.388,0.234,0.399,0.366,0.332,0.195,0.164,�k,3.2,��
2017/03/26,05:30,0.389,0.235,0.399,0.366,0.332,0.194,0.164,�k,3.2,��
2017/03/26,05:40,0.389,0.233,0.399,0.368,0.332,0.193,0.164,�k,3.4,��
2017/03/26,05:50,0.388,0.233,0.397,0.368,0.331,0.193,0.165,�k,3.8,��
2017/03/26,06:00,0.388,0.234,0.398,0.366,0.333,0.194,0.165,�k,3.3,��
2017/03/26,06:10,0.388,0.233,0.400,0.367,0.333,0.193,0.164,�k,3.0,��
2017/03/26,06:20,0.388,0.234,0.399,0.368,0.333,0.194,0.165,�k,2.7,��
2017/03/26,06:30,0.388,0.235,0.397,0.367,0.334,0.193,0.164,�k,2.8,��
2017/03/26,06:40,0.388,0.234,0.397,0.367,0.334,0.193,0.164,�k,2.8,��
2017/03/26,06:50,0.386,0.233,0.397,0.366,0.332,0.192,0.163,�k,1.9,��
2017/03/26,07:00,0.388,0.233,0.399,0.367,0.333,0.193,0.164,�k�k��,1.7,��
2017/03/26,07:10,0.389,0.234,0.398,0.368,0.335,0.193,0.164,�k�k��,2.2,��
2017/03/26,07:20,0.388,0.234,0.397,0.366,0.333,0.194,0.165,�k,1.5,��
2017/03/26,07:30,0.386,0.233,0.395,0.366,0.332,0.193,0.164,�k�k��,1.4,��
2017/03/26,07:40,0.389,0.233,0.397,0.367,0.335,0.193,0.164,�k�k��,1.9,��
2017/03/26,07:50,0.389,0.234,0.395,0.366,0.333,0.192,0.163,�k�k��,1.6,��
2017/03/26,08:00,0.387,0.233,0.395,0.365,0.333,0.192,0.164,�k�k��,2.3,��
2017/03/26,08:10,0.388,0.234,0.399,0.367,0.334,0.194,0.164,�k�k��,2.0,��
2017/03/26,08:20,0.388,0.233,0.398,0.367,0.332,0.193,0.163,�k��,1.7,��
2017/03/26,08:30,0.387,0.235,0.397,0.366,0.331,0.193,0.164,�k�k��,2.3,��
2017/03/26,08:40,0.389,0.233,0.398,0.366,0.335,0.193,0.163,�k�k��,2.6,��
2017/03/26,08:50,0.388,0.233,0.397,0.368,0.333,0.194,0.163,�k�k��,1.6,��
2017/03/26,09:00,0.387,0.233,0.396,0.365,0.332,0.193,0.164,�k,1.6,��
2017/03/26,09:10,0.388,0.233,0.397,0.367,0.333,0.194,0.164,�k��,1.0,��
2017/03/26,09:20,0.388,0.233,0.396,0.364,0.331,0.193,0.164,�k�k��,1.9,��
2017/03/26,09:30,0.386,0.233,0.394,0.366,0.333,0.193,0.163,�k�k��,3.0,��
2017/03/26,09:40,0.387,0.233,0.399,0.367,0.332,0.193,0.162,�k�k��,1.1,��
2017/03/26,09:50,0.387,0.234,0.397,0.365,0.331,0.194,0.164,�k�k��,2.7,��
2017/03/26,10:00,0.386,0.233,0.395,0.366,0.335,0.192,0.164,�k��,2.1,��
2017/03/26,10:10,0.386,0.234,0.398,0.365,0.332,0.192,0.164,�k,2.6,��
2017/03/26,10:20,0.388,0.233,0.396,0.366,0.335,0.193,0.164,�k�k��,2.7,��
2017/03/26,10:30,0.388,0.232,0.397,0.367,0.331,0.194,0.163,�k��,3.1,��
2017/03/26,10:40,0.388,0.234,0.397,0.366,0.333,0.193,0.164,�k�k��,2.8,��
2017/03/26,10:50,0.387,0.234,0.396,0.368,0.332,0.192,0.164,�k��,2.5,��
2017/03/26,11:00,0.388,0.234,0.399,0.365,0.331,0.192,0.163,�k�k��,2.5,��
2017/03/26,11:10,0.386,0.235,0.396,0.366,0.333,0.193,0.164,�k�k��,3.1,��
2017/03/26,11:20,0.387,0.234,0.396,0.367,0.332,0.192,0.163,�k��,3.4,��
2017/03/26,11:30,0.390,0.233,0.399,0.365,0.334,0.192,0.164,�k��,2.8,��
2017/03/26,11:40,0.388,0.233,0.397,0.367,0.333,0.192,0.164,�k�k��,3.0,��
2017/03/26,11:50,0.389,0.233,0.396,0.366,0.333,0.193,0.163,�k�k��,3.0,��
2017/03/26,12:00,0.387,0.233,0.398,0.367,0.334,0.193,0.163,�k�k��,2.6,��
2017/03/26,12:10,0.388,0.235,0.396,0.366,0.331,0.193,0.164,�k��,3.0,��
2017/03/26,12:20,0.389,0.235,0.399,0.365,0.333,0.192,0.163,�k��,3.4,��
2017/03/26,12:30,0.388,0.234,0.395,0.368,0.331,0.193,0.164,�k��,2.6,��
2017/03/26,12:40,0.387,0.234,0.396,0.365,0.334,0.193,0.164,�k��,2.0,��
2017/03/26,12:50,0.390,0.233,0.400,0.368,0.334,0.193,0.163,�k��,2.3,�L
2017/03/26,13:00,0.388,0.234,0.395,0.368,0.333,0.193,0.164,�k�k��,3.1,�L
2017/03/26,13:10,0.390,0.235,0.398,0.367,0.334,0.193,0.165,�k��,3.4,��
2017/03/26,13:20,0.387,0.234,0.397,0.368,0.333,0.192,0.163,�k��,2.6,��
2017/03/26,13:30,0.389,0.233,0.396,0.365,0.332,0.193,0.163,�k��,2.1,��
2017/03/26,13:40,0.389,0.234,0.398,0.365,0.332,0.193,0.164,�k��,2.5,��
2017/03/26,13:50,0.389,0.235,0.397,0.366,0.331,0.193,0.164,�k��,2.0,��
2017/03/26,14:00,0.389,0.233,0.397,0.366,0.334,0.192,0.165,���k��,2.5,��
2017/03/26,14:10,0.388,0.235,0.398,0.368,0.333,0.193,0.164,�k��,2.3,��
2017/03/26,14:20,0.388,0.233,0.396,0.365,0.334,0.193,0.164,���k��,1.4,��
2017/03/26,14:30,0.389,0.233,0.398,0.367,0.333,0.193,0.164,��,2.4,�L
2017/03/26,14:40,0.387,0.233,0.397,0.366,0.332,0.194,0.164,��,3.2,�L
2017/03/26,14:50,0.389,0.234,0.396,0.368,0.334,0.193,0.165,��,3.5,�L
2017/03/26,15:00,0.388,0.234,0.398,0.369,0.333,0.192,0.165,���쓌,3.1,�L
2017/03/26,15:10,0.388,0.234,0.396,0.368,0.332,0.193,0.165,���쓌,2.3,�L
2017/03/26,15:20,0.388,0.234,0.398,0.369,0.334,0.193,0.165,���쓌,2.8,�L
2017/03/26,15:30,0.389,0.234,0.397,0.368,0.333,0.192,0.164,���쓌,3.0,�L
2017/03/26,15:40,0.389,0.235,0.395,0.366,0.333,0.193,0.164,���쓌,3.2,�L
2017/03/26,15:50,0.388,0.234,0.398,0.368,0.334,0.194,0.165,���쓌,2.7,�L
2017/03/26,16:00,0.388,0.234,0.398,0.368,0.333,0.193,0.165,���쓌,2.9,�L
2017/03/26,16:10,0.390,0.234,0.397,0.367,0.335,0.194,0.164,���쓌,3.9,�L
2017/03/26,16:20,0.388,0.234,0.398,0.369,0.334,0.193,0.164,���쓌,3.9,�L
2017/03/26,16:30,0.387,0.234,0.398,0.366,0.333,0.193,0.164,�쓌,4.2,�L
2017/03/26,16:40,0.388,0.234,0.396,0.366,0.334,0.194,0.163,�쓌,5.6,�L
2017/03/26,16:50,0.387,0.235,0.398,0.369,0.334,0.193,0.164,���쓌,6.0,�L
2017/03/26,17:00,0.388,0.234,0.398,0.368,0.333,0.194,0.165,�쓌,5.8,�L
2017/03/26,17:10,0.388,0.234,0.397,0.366,0.332,0.193,0.164,�쓌,4.6,�L
2017/03/26,17:20,0.389,0.234,0.397,0.367,0.334,0.193,0.164,���쓌,3.9,�L
2017/03/26,17:30,0.388,0.235,0.399,0.366,0.333,0.194,0.166,���쓌,4.0,�L
2017/03/26,17:40,0.388,0.234,0.397,0.367,0.332,0.193,0.164,���쓌,3.5,�L
2017/03/26,17:50,0.389,0.234,0.397,0.367,0.333,0.194,0.165,���쓌,4.6,�L
2017/03/26,18:00,0.388,0.233,0.396,0.367,0.333,0.193,0.166,���쓌,4.1,�L
2017/03/26,18:10,0.388,0.233,0.396,0.365,0.331,0.194,0.166,���쓌,2.2,�L
2017/03/26,18:20,0.388,0.234,0.396,0.366,0.334,0.193,0.164,��,2.9,�L
2017/03/26,18:30,0.387,0.233,0.396,0.365,0.332,0.194,0.165,���쓌,2.0,�L
2017/03/26,18:40,0.386,0.234,0.395,0.365,0.331,0.193,0.165,���k��,2.2,�L
2017/03/26,18:50,0.386,0.234,0.394,0.365,0.331,0.194,0.165,���k��,1.4,�L
2017/03/26,19:00,0.386,0.233,0.395,0.363,0.333,0.194,0.165,�k��,1.5,�L
2017/03/26,19:10,0.386,0.234,0.395,0.365,0.330,0.192,0.164,�k��,2.2,�L
2017/03/26,19:20,0.386,0.233,0.392,0.363,0.332,0.193,0.164,�k��,3.3,�L
2017/03/26,19:30,0.386,0.233,0.394,0.363,0.333,0.194,0.164,�k�k��,1.9,�L
2017/03/26,19:40,0.386,0.233,0.393,0.365,0.331,0.193,0.163,�k�k��,3.0,�L
2017/03/26,19:50,0.386,0.233,0.393,0.363,0.331,0.193,0.165,�k�k��,3.1,�L
2017/03/26,20:00,0.386,0.233,0.392,0.363,0.330,0.192,0.164,�k,3.7,�L
2017/03/26,20:10,0.386,0.233,0.393,0.363,0.330,0.192,0.162,�k�k��,3.8,�L
2017/03/26,20:20,0.385,0.233,0.392,0.362,0.329,0.192,0.163,�k�k��,4.0,�L
2017/03/26,20:30,0.384,0.232,0.391,0.361,0.329,0.193,0.163,�k�k��,5.3,�L
2017/03/26,20:40,0.386,0.233,0.393,0.362,0.330,0.192,0.163,�k�k��,4.9,�L
2017/03/26,20:50,0.384,0.233,0.393,0.361,0.330,0.194,0.165,�k,5.4,�L
2017/03/26,21:00,0.385,0.234,0.392,0.361,0.329,0.194,0.164,�k,5.2,�L
2017/03/26,21:10,0.385,0.233,0.392,0.361,0.330,0.193,0.165,�k,5.0,�L
2017/03/26,21:20,0.385,0.233,0.391,0.361,0.331,0.193,0.163,�k,5.5,�L
2017/03/26,21:30,0.384,0.232,0.390,0.360,0.330,0.193,0.164,�k,6.0,�L
2017/03/26,21:40,0.382,0.233,0.390,0.359,0.327,0.192,0.164,�k,6.7,�L
2017/03/26,21:50,0.382,0.232,0.389,0.359,0.328,0.193,0.163,�k�k��,6.6,�L
2017/03/26,22:00,0.383,0.232,0.387,0.358,0.328,0.193,0.162,�k,7.1,�L
2017/03/26,22:10,0.381,0.232,0.386,0.357,0.328,0.192,0.163,�k�k��,7.1,�L
2017/03/26,22:20,0.381,0.232,0.387,0.357,0.327,0.191,0.163,�k�k��,7.8,�L
2017/03/26,22:30,0.381,0.231,0.385,0.357,0.327,0.193,0.162,�k�k��,7.7,�L
2017/03/26,22:40,0.381,0.230,0.383,0.355,0.327,0.192,0.163,�k�k��,8.2,�L
2017/03/26,22:50,0.380,0.232,0.385,0.355,0.327,0.192,0.162,�k�k��,7.6,�L
2017/03/26,23:00,0.379,0.231,0.384,0.355,0.327,0.192,0.162,�k�k��,7.3,�L
2017/03/26,23:10,0.378,0.230,0.384,0.356,0.327,0.191,0.163,�k�k��,6.4,�L
2017/03/26,23:20,0.379,0.231,0.384,0.354,0.327,0.190,0.162,�k�k��,6.9,�L
2017/03/26,23:30,0.381,0.229,0.382,0.354,0.327,0.190,0.162,�k�k��,6.9,�L
2017/03/26,23:40,0.379,0.230,0.381,0.352,0.327,0.191,0.161,�k�k��,6.9,�L
2017/03/26,23:50,0.378,0.230,0.383,0.353,0.326,0.190,0.162,�k�k��,6.9,�L
